• In Uzbekistan
  • List of Countries
  • For 7 days
  • Water Temperature
  • Satellite Maps
  • Weather Map
  • Weather Widgets
  • user-avatar
    Login

    Hourly Weather Maun

    Today, 22 February, Thursday

    Time Temperature Precipitation Wind Pressure Humidity
    00:00 +24°C° 0.3 mm 2 mps 677 mmHg 85%
    01:00 +24°C° 0.3 mm 1 mps 677 mmHg 87%
    02:00 +23°C° 0 mm 1 mps 677 mmHg 88%
    03:00 +23°C° 0.1 mm 1 mps 677 mmHg 89%
    04:00 +23°C° 0.1 mm 1 mps 677 mmHg 90%
    05:00 +23°C° 0.1 mm 1 mps 677 mmHg 91%
    06:00 +23°C° 0.2 mm 2 mps 677 mmHg 89%
    07:00 +23°C° 0.2 mm 2 mps 678 mmHg 88%
    08:00 +24°C° 0 mm 2 mps 678 mmHg 86%
    09:00 +25°C° 1.2 mm 2 mps 678 mmHg 82%
    10:00 +26°C° 1.2 mm 3 mps 678 mmHg 78%
    11:00 +27°C° 1.2 mm 3 mps 678 mmHg 73%
    12:00 +27°C° 0.8 mm 3 mps 678 mmHg 70%
    13:00 +28°C° 0.8 mm 3 mps 678 mmHg 67%
    14:00 +29°C° 0.8 mm 2 mps 678 mmHg 64%
    15:00 +28°C° 1.5 mm 2 mps 677 mmHg 68%
    16:00 +28°C° 1.5 mm 2 mps 677 mmHg 72%
    17:00 +27°C° 1.5 mm 2 mps 677 mmHg 75%
    18:00 +26°C° 1.9 mm 2 mps 677 mmHg 80%
    19:00 +25°C° 1.9 mm 2 mps 677 mmHg 85%
    20:00 +24°C° 1.9 mm 2 mps 677 mmHg 89%
    21:00 +23°C° 1 mm 2 mps 677 mmHg 90%
    22:00 +23°C° 1 mm 2 mps 678 mmHg 91%
    23:00 +22°C° 1 mm 3 mps 678 mmHg 92%

    Tomorrow, 23 February, Friday

    Time Temperature Precipitation Wind Pressure Humidity
    00:00 +22°C° 1.1 mm 3 mps 678 mmHg 92%
    01:00 +22°C° 1.1 mm 3 mps 677 mmHg 93%
    02:00 +21°C° 1.1 mm 3 mps 677 mmHg 93%
    03:00 +21°C° 0.9 mm 3 mps 677 mmHg 93%
    04:00 +21°C° 0.9 mm 3 mps 677 mmHg 93%
    05:00 +21°C° 0.9 mm 2 mps 676 mmHg 92%
    06:00 +21°C° 0.9 mm 3 mps 677 mmHg 92%
    07:00 +21°C° 0.9 mm 3 mps 677 mmHg 91%
    08:00 +22°C° 0.9 mm 3 mps 677 mmHg 91%
    09:00 +22°C° 1 mm 3 mps 677 mmHg 88%
    10:00 +24°C° 1 mm 3 mps 677 mmHg 85%
    11:00 +25°C° 1 mm 3 mps 677 mmHg 82%
    12:00 +26°C° 1.1 mm 3 mps 677 mmHg 77%
    13:00 +27°C° 1.1 mm 3 mps 677 mmHg 73%
    14:00 +28°C° 1.1 mm 2 mps 676 mmHg 69%
    15:00 +28°C° 1.5 mm 2 mps 676 mmHg 71%
    16:00 +27°C° 1.5 mm 2 mps 676 mmHg 73%
    17:00 +27°C° 1.5 mm 1 mps 675 mmHg 75%
    18:00 +26°C° 1.3 mm 1 mps 676 mmHg 80%
    19:00 +25°C° 1.3 mm 1 mps 676 mmHg 84%
    20:00 +24°C° 1.3 mm 1 mps 676 mmHg 89%
    21:00 +23°C° 0.5 mm 1 mps 676 mmHg 90%
    22:00 +23°C° 0.5 mm 2 mps 677 mmHg 92%
    23:00 +23°C° 0.5 mm 2 mps 677 mmHg 93%

    Day after tomorrow, 24 February, Saturday

    Time Temperature Precipitation Wind Pressure Humidity
    00:00 +23°C° 0.6 mm 2 mps 677 mmHg 94%
    01:00 +23°C° 0.6 mm 2 mps 676 mmHg 95%
    02:00 +21°C° 0.6 mm 2 mps 676 mmHg 95%
    03:00 +21°C° 0.6 mm 2 mps 676 mmHg 96%
    04:00 +21°C° 0.6 mm 2 mps 676 mmHg 96%
    05:00 +22°C° 0.6 mm 1 mps 676 mmHg 96%
    06:00 +22°C° 0.3 mm 1 mps 676 mmHg 95%
    07:00 +21°C° 0.3 mm 2 mps 676 mmHg 94%
    08:00 +23°C° 0.3 mm 2 mps 677 mmHg 93%
    09:00 +24°C° 0.6 mm 2 mps 677 mmHg 88%
    10:00 +25°C° 0.6 mm 2 mps 677 mmHg 82%
    11:00 +26°C° 0.6 mm 2 mps 678 mmHg 77%
    12:00 +27°C° 0.6 mm 2 mps 677 mmHg 73%
    13:00 +28°C° 0.6 mm 2 mps 677 mmHg 69%
    14:00 +29°C° 0.6 mm 2 mps 676 mmHg 65%
    15:00 +28°C° 0.2 mm 2 mps 676 mmHg 67%
    16:00 +28°C° 0.2 mm 2 mps 676 mmHg 69%
    17:00 +28°C° 0.2 mm 2 mps 675 mmHg 71%
    18:00 +26°C° 1.4 mm 2 mps 676 mmHg 77%
    19:00 +25°C° 1.4 mm 2 mps 676 mmHg 84%
    20:00 +24°C° 1.4 mm 2 mps 676 mmHg 90%
    21:00 +24°C° 1.3 mm 1 mps 677 mmHg 90%
    22:00 +24°C° 1.3 mm 1 mps 677 mmHg 90%
    23:00 +23°C° 1.3 mm 1 mps 677 mmHg 90%

    25 February, Sunday

    Time Temperature Precipitation Wind Pressure Humidity
    00:00 +23°C° 0.7 mm 1 mps 677 mmHg 90%
    01:00 +23°C° 0.7 mm 1 mps 676 mmHg 90%
    02:00 +23°C° 0.7 mm 1 mps 676 mmHg 90%
    03:00 +23°C° 0.6 mm 2 mps 676 mmHg 91%
    04:00 +21°C° 0.6 mm 2 mps 676 mmHg 91%
    05:00 +21°C° 0.6 mm 2 mps 676 mmHg 92%
    06:00 +21°C° 1.3 mm 2 mps 677 mmHg 92%
    07:00 +21°C° 1.3 mm 2 mps 677 mmHg 92%
    08:00 +21°C° 1.3 mm 3 mps 677 mmHg 92%
    09:00 +22°C° 2 mm 3 mps 678 mmHg 92%
    10:00 +22°C° 2 mm 3 mps 678 mmHg 91%
    11:00 +22°C° 2 mm 3 mps 678 mmHg 91%
    12:00 +24°C° 0.8 mm 3 mps 677 mmHg 89%
    13:00 +23°C° 0.8 mm 4 mps 677 mmHg 87%
    14:00 +25°C° 0.8 mm 4 mps 676 mmHg 84%
    15:00 +25°C° 0.2 mm 4 mps 676 mmHg 84%
    16:00 +25°C° 0.2 mm 4 mps 676 mmHg 84%
    17:00 +25°C° 0.2 mm 4 mps 676 mmHg 84%
    18:00 +24°C° 0.3 mm 3 mps 676 mmHg 86%
    19:00 +22°C° 0.3 mm 3 mps 676 mmHg 89%
    20:00 +22°C° 0.3 mm 3 mps 677 mmHg 91%
    21:00 +21°C° 0.3 mm 3 mps 677 mmHg 92%
    22:00 +21°C° 0.3 mm 3 mps 677 mmHg 92%
    23:00 +21°C° 0.3 mm 3 mps 677 mmHg 93%

    26 February, Monday

    Time Temperature Precipitation Wind Pressure Humidity
    00:00 +21°C° 0.4 mm 3 mps 677 mmHg 93%
    01:00 +21°C° 0.4 mm 3 mps 677 mmHg 93%
    02:00 +20°C° 0.4 mm 3 mps 676 mmHg 93%
    03:00 +20°C° 0.3 mm 3 mps 676 mmHg 93%
    04:00 +20°C° 0.3 mm 3 mps 676 mmHg 94%
    05:00 +20°C° 0.3 mm 3 mps 676 mmHg 94%
    06:00 +20°C° 2.4 mm 4 mps 677 mmHg 93%
    07:00 +20°C° 2.4 mm 5 mps 677 mmHg 93%
    08:00 +20°C° 2.4 mm 6 mps 678 mmHg 92%
    09:00 +20°C° 4.8 mm 6 mps 678 mmHg 92%
    10:00 +20°C° 4.8 mm 6 mps 678 mmHg 93%
    11:00 +19°C° 4.8 mm 6 mps 678 mmHg 93%
    12:00 +19°C° 3.2 mm 6 mps 678 mmHg 92%
    13:00 +19°C° 3.2 mm 6 mps 677 mmHg 92%
    14:00 +19°C° 3.2 mm 6 mps 677 mmHg 92%
    15:00 +19°C° 2.1 mm 6 mps 677 mmHg 92%
    16:00 +19°C° 2.1 mm 6 mps 677 mmHg 92%
    17:00 +19°C° 2.1 mm 6 mps 677 mmHg 92%
    18:00 +19°C° 0.9 mm 6 mps 677 mmHg 91%
    19:00 +19°C° 0.9 mm 6 mps 678 mmHg 91%
    20:00 +19°C° 0.9 mm 6 mps 678 mmHg 91%
    21:00 +17°C° 1.2 mm 5 mps 679 mmHg 91%
    22:00 +17°C° 1.2 mm 5 mps 679 mmHg 92%
    23:00 +17°C° 1.2 mm 5 mps 679 mmHg 92%

    27 February, Tuesday

    Time Temperature Precipitation Wind Pressure Humidity
    00:00 +17°C° 1.5 mm 5 mps 679 mmHg 92%
    01:00 +17°C° 1.5 mm 5 mps 678 mmHg 93%
    02:00 +18°C° 1.6 mm 4 mps 678 mmHg 93%
    03:00 +18°C° 1.6 mm 4 mps 678 mmHg 93%
    04:00 +18°C° 1.6 mm 4 mps 678 mmHg 93%
    05:00 +18°C° 1.6 mm 4 mps 678 mmHg 94%
    06:00 +18°C° 0.6 mm 4 mps 678 mmHg 93%
    07:00 +18°C° 0.6 mm 4 mps 679 mmHg 93%
    08:00 +18°C° 0.6 mm 4 mps 679 mmHg 93%
    09:00 +19°C° 0.1 mm 4 mps 679 mmHg 91%
    10:00 +19°C° 0.1 mm 4 mps 679 mmHg 89%
    11:00 +20°C° 0.1 mm 4 mps 679 mmHg 88%
    12:00 +20°C° 0.1 mm 4 mps 679 mmHg 87%
    13:00 +20°C° 0.1 mm 4 mps 679 mmHg 87%
    14:00 +21°C° 0.1 mm 4 mps 678 mmHg 86%
    15:00 +21°C° 0 mm 4 mps 678 mmHg 86%
    16:00 +21°C° 0 mm 4 mps 678 mmHg 85%
    17:00 +21°C° 0 mm 4 mps 678 mmHg 84%
    18:00 +21°C° 0 mm 4 mps 678 mmHg 86%
    19:00 +20°C° 0 mm 3 mps 678 mmHg 88%
    20:00 +19°C° 0 mm 3 mps 679 mmHg 90%
    21:00 +19°C° 0 mm 3 mps 679 mmHg 90%
    22:00 +19°C° 0 mm 3 mps 679 mmHg 91%
    23:00 +19°C° 0 mm 3 mps 679 mmHg 91%
    Show more